GW7000 Weather Reports


time (UTC)temp
F
wind
direction
speed
knots
gust
knots
rain 1hr
in
rain 24hr
in
rain mn
in
humidity
%
barometer
mb
20260506104945 50 63 0.9 1.7 0.00 0.00 0.00 97 1019.3
20260506104443 50 55 0.0 1.7 0.00 0.00 0.00 97 1019.3
20260506103941 50 83 0.9 0.9 0.00 0.00 0.00 97 1019.2
20260506103438 50 1 0.9 1.7 0.00 0.00 0.00 97 1019.1
20260506102934 50 2 0.9 0.9 0.00 0.00 0.00 96 1019.2
20260506102432 50 352 1.7 1.7 0.00 0.00 0.00 96 1019.0
20260506101929 50 29 0.0 0.9 0.00 0.00 0.00 96 1018.9
20260506101426 50 346 1.7 1.7 0.00 0.00 0.00 96 1018.9
20260506100924 51 334 1.7 1.7 0.00 0.00 0.00 95 1018.9
20260506100422 51 298 2.6 2.6 0.00 0.00 0.00 95 1018.8
20260506095919 51 299 0.9 1.7 0.00 0.00 0.00 95 1018.6
20260506095418 51 314 0.9 1.7 0.00 0.00 0.00 95 1018.8
20260506094913 51 280 0.9 1.7 0.00 0.00 0.00 94 1018.7
20260506094412 51 290 0.9 1.7 0.00 0.00 0.00 94 1018.7
20260506093909 52 351 0.0 0.9 0.00 0.00 0.00 94 1018.6
20260506093407 52 304 0.0 2.6 0.00 0.00 0.00 94 1018.6
20260506092905 52 258 2.6 3.5 0.00 0.00 0.00 95 1018.8
20260506092403 52 284 0.0 1.7 0.00 0.00 0.00 95 1018.7
20260506091859 52 293 0.0 0.9 0.00 0.00 0.00 95 1018.6
20260506091357 52 260 0.9 0.9 0.00 0.00 0.00 95 1018.6
20260506090854 52 278 0.9 0.9 0.00 0.00 0.00 95 1018.7
20260506090352 52 313 0.9 1.7 0.00 0.00 0.00 95 1018.6
20260506085848 52 269 0.0 1.7 0.00 0.00 0.00 95 1018.6
20260506085344 52 313 0.9 1.7 0.00 0.00 0.00 95 1018.7
20260506084841 52 336 0.0 1.7 0.00 0.00 0.00 94 1018.7
20260506084338 53 259 1.7 3.5 0.00 0.00 0.00 94 1018.7
20260506083834 53 327 0.0 1.7 0.00 0.00 0.00 93 1019.0
20260506083332 53 19 2.6 5.2 0.00 0.00 0.00 93 1018.8
20260506082829 53 27 3.5 5.2 0.00 0.00 0.00 94 1019.1
20260506082325 53 19 3.5 5.2 0.00 0.00 0.00 94 1019.2
20260506081822 53 28 4.3 5.2 0.00 0.00 0.00 94 1019.3
20260506081320 53 19 2.6 3.5 0.00 0.00 0.00 94 1019.0
20260506080817 53 12 2.6 2.6 0.00 0.00 0.00 93 1019.1
20260506080313 53 5 1.7 2.6 0.00 0.00 0.00 93 1019.1
20260506073258 52 0 1.7 2.6 0.00 0.00 0.00 96 1018.8
20260506072754 52 5 1.7 2.6 0.00 0.00 0.00 95 1018.8
20260506072252 52 8 1.7 1.7 0.00 0.00 0.00 94 1018.6
20260506071749 52 356 0.0 0.9 0.00 0.00 0.00 94 1018.5
20260506071247 52 339 0.9 1.7 0.00 0.00 0.00 94 1018.4
20260506070744 52 0 0.9 1.7 0.00 0.00 0.00 94 1018.3
20260506070241 52 296 0.0 0.9 0.00 0.00 0.00 93 1018.2
20260506062218 53 29 0.0 0.9 0.00 0.00 0.00 92 1017.9
20260506061714 53 315 0.0 0.0 0.00 0.00 0.00 92 1017.7
20260506061212 53 309 0.0 0.0 0.00 0.00 0.00 92 1017.9
20260506060710 53 345 0.0 0.0 0.00 0.00 0.00 92 1017.6
20260506060207 54 348 0.9 0.9 0.00 0.00 0.00 91 1017.6
20260506051139 56 313 1.7 1.7 0.00 0.00 0.00 87 1017.4
20260506050637 56 316 1.7 2.6 0.00 0.00 0.00 88 1017.5
20260506050134 56 7 0.0 0.9 0.00 0.00 0.00 86 1017.5
20260506045126 57 310 0.0 0.9 0.00 0.00 0.00 83 1017.3
20260506044625 57 310 1.7 2.6 0.00 0.00 0.00 82 1017.4
20260506044122 58 313 2.6 2.6 0.00 0.00 0.00 82 1017.1
20260506043619 58 317 1.7 2.6 0.00 0.00 0.00 82 1017.2
20260506043117 58 315 1.7 3.5 0.00 0.00 0.00 83 1017.0
20260506042616 58 333 1.7 2.6 0.00 0.00 0.00 83 1017.1
20260506042113 58 312 1.7 1.7 0.00 0.00 0.00 84 1017.0
20260506041612 57 303 1.7 1.7 0.00 0.00 0.00 84 1016.8
20260506041108 57 320 1.7 1.7 0.00 0.00 0.00 85 1016.9
20260506040606 58 336 2.6 2.6 0.00 0.00 0.00 84 1016.9
20260506035559 59 320 2.6 3.5 0.00 0.00 0.00 81 1016.7
20260506035056 59 323 3.5 3.5 0.00 0.00 0.00 80 1016.5
20260506034553 59 325 2.6 3.5 0.00 0.00 0.00 79 1016.3
20260506034050 59 330 1.7 3.5 0.00 0.00 0.00 79 1016.3
20260506033547 59 320 2.6 2.6 0.00 0.00 0.00 79 1016.4
20260506033044 60 291 3.5 3.5 0.00 0.00 0.00 79 1016.3
20260506032542 59 310 2.6 2.6 0.00 0.00 0.00 80 1016.1
20260506032038 59 294 2.6 3.5 0.00 0.00 0.00 80 1016.2
20260506031536 59 315 2.6 2.6 0.00 0.00 0.00 81 1015.8
20260506031033 59 339 2.6 3.5 0.00 0.00 0.00 80 1015.8
20260506030531 60 325 3.5 3.5 0.00 0.00 0.00 79 1015.9
20260506030028 60 313 3.5 3.5 0.00 0.00 0.00 77 1015.9
20260506025525 61 304 2.6 3.5 0.00 0.00 0.00 76 1015.9
20260506025020 61 308 2.6 3.5 0.00 0.00 0.00 76 1015.7
20260506024517 61 303 3.5 3.5 0.00 0.00 0.00 76 1015.6
20260506024014 61 321 2.6 3.5 0.00 0.00 0.00 76 1015.6
20260506023510 61 319 2.6 3.5 0.00 0.00 0.00 77 1015.7
20260506023008 62 331 3.5 3.5 0.00 0.00 0.00 75 1015.5
20260506022505 63 340 2.6 3.5 0.00 0.00 0.00 74 1015.6
20260506022003 64 334 2.6 3.5 0.00 0.00 0.00 71 1015.4
20260506021500 64 329 2.6 4.3 0.00 0.00 0.00 70 1015.5
20260506020957 64 330 3.5 5.2 0.00 0.00 0.00 69 1015.4
20260506020454 64 341 4.3 6.1 0.00 0.00 0.00 67 1015.4
20260506015951 64 326 5.2 7.0 0.00 0.00 0.00 67 1015.5
20260506015449 65 322 5.2 7.0 0.00 0.00 0.00 66 1015.5
20260506014946 65 318 5.2 5.2 0.00 0.00 0.00 67 1015.4
20260506014442 65 290 3.5 6.1 0.00 0.00 0.00 67 1015.6
20260506013939 65 344 5.2 8.7 0.00 0.00 0.00 65 1015.5
20260506013437 66 320 3.5 5.2 0.00 0.00 0.00 67 1015.7
20260506012933 66 342 4.3 5.2 0.00 0.00 0.00 65 1015.5
20260506012430 66 4 2.6 7.0 0.00 0.00 0.00 66 1015.5
20260506011927 66 346 3.5 7.0 0.00 0.00 0.00 65 1015.6
20260506011424 66 3 4.3 6.1 0.00 0.00 0.00 66 1015.6
20260506010921 66 304 3.5 6.1 0.00 0.00 0.00 65 1015.5
20260506010420 66 315 3.5 5.2 0.00 0.00 0.00 65 1015.7
20260506005915 66 307 2.6 5.2 0.00 0.00 0.00 65 1015.4
20260506005414 64 317 2.6 3.5 0.00 0.00 0.00 69 1015.7
20260506004908 64 328 2.6 4.3 0.00 0.00 0.00 71 1015.7
20260506004407 64 311 3.5 4.3 0.00 0.00 0.00 70 1015.6
20260506003902 64 0 2.6 5.2 0.00 0.00 0.00 71 1015.4
20260506003359 64 324 4.3 5.2 0.00 0.00 0.00 69 1015.5
20260506002855 64 336 3.5 5.2 0.00 0.00 0.00 69 1015.6
20260506002351 64 331 3.5 5.2 0.00 0.00 0.00 68 1015.5
20260506001848 64 332 3.5 6.1 0.00 0.00 0.00 69 1015.7
20260506001344 64 307 6.1 6.1 0.00 0.00 0.00 70 1015.5
20260506000841 64 325 2.6 5.2 0.00 0.00 0.00 70 1015.5
20260506000340 64 307 5.2 5.2 0.00 0.00 0.00 69 1015.5
20260505235836 64 296 6.1 7.8 0.00 0.00 0.00 68 1015.4
20260505235333 64 303 5.2 7.8 0.00 0.00 0.00 68 1015.5
20260505234830 64 307 2.6 7.0 0.00 0.00 0.00 69 1015.5
20260505234328 64 306 3.5 7.0 0.00 0.00 0.00 67 1015.4
20260505233825 64 311 7.0 7.0 0.00 0.00 0.00 68 1015.4
20260505233323 64 310 4.3 8.7 0.00 0.00 0.00 68 1015.5
20260505232820 64 305 2.6 3.5 0.00 0.00 0.00 67 1015.4
20260505232317 64 302 4.3 6.1 0.00 0.00 0.00 65 1015.6
20260505231814 64 339 2.6 6.1 0.00 0.00 0.00 67 1015.5
20260505231312 64 346 3.5 5.2 0.00 0.00 0.00 69 1015.5
20260505230810 64 349 4.3 5.2 0.00 0.00 0.00 68 1015.4
20260505230306 64 348 3.5 6.1 0.00 0.00 0.00 68 1015.6
20260505225803 64 301 4.3 5.2 0.00 0.00 0.00 67 1015.7
20260505225301 64 311 1.7 5.2 0.00 0.00 0.00 66 1015.5
20260505224800 64 308 4.3 7.0 0.00 0.00 0.00 64 1015.6
20260505224259 65 343 5.2 7.0 0.00 0.00 0.00 64 1015.6
20260505223756 65 341 6.1 9.6 0.00 0.00 0.00 65 1015.5
20260505223252 65 305 5.2 6.1 0.00 0.00 0.00 65 1015.9
20260505222748 64 318 7.0 9.6 0.00 0.00 0.00 65 1015.5
20260505222245 64 325 6.1 9.6 0.00 0.00 0.00 66 1015.8
20260505221742 64 339 6.1 9.6 0.00 0.00 0.00 65 1015.6
20260505221239 64 342 4.3 5.2 0.00 0.00 0.00 67 1015.7
20260505220735 64 335 5.2 7.8 0.00 0.00 0.00 69 1015.6
20260505220233 63 335 4.3 6.1 0.00 0.00 0.00 69 1015.8
20260505215731 64 323 7.8 8.7 0.00 0.00 0.00 69 1015.8
20260505215228 63 309 7.0 7.0 0.00 0.00 0.00 67 1015.7
20260505214726 63 352 5.2 7.8 0.00 0.00 0.00 70 1015.8
20260505214223 62 347 3.5 8.7 0.00 0.00 0.00 72 1015.9
20260505213721 63 325 7.0 8.7 0.00 0.00 0.00 70 1015.9
20260505213218 63 335 4.3 7.0 0.00 0.00 0.00 71 1015.9
20260505212714 63 340 4.3 5.2 0.00 0.00 0.00 72 1016.0
20260505212211 62 350 4.3 5.2 0.00 0.00 0.00 70 1016.0
20260505211708 63 346 7.0 8.7 0.00 0.00 0.00 70 1016.0
20260505211205 63 334 3.5 6.1 0.00 0.00 0.00 70 1015.9
20260505210701 63 326 4.3 7.0 0.00 0.00 0.00 71 1015.8
20260505210159 63 330 5.2 6.1 0.00 0.00 0.00 68 1015.8
20260505205656 63 329 5.2 7.8 0.00 0.00 0.00 70 1015.8
20260505205154 62 332 2.6 6.1 0.00 0.00 0.00 68 1015.9
20260505204650 63 358 2.6 4.3 0.00 0.00 0.00 70 1016.0
20260505204148 63 294 2.6 5.2 0.00 0.00 0.00 67 1016.0
20260505203645 62 339 4.3 7.8 0.00 0.00 0.00 70 1016.1
20260505203142 63 327 5.2 6.1 0.00 0.00 0.00 69 1016.1
20260505202638 63 316 5.2 6.1 0.00 0.00 0.00 66 1016.2
20260505202134 63 2 6.1 7.0 0.00 0.00 0.00 67 1016.0
20260505201630 63 341 4.3 9.6 0.00 0.00 0.00 68 1016.0
20260505201128 63 306 3.5 7.8 0.00 0.00 0.00 67 1016.0
20260505200626 63 334 6.1 7.8 0.00 0.00 0.00 65 1016.1
20260505200123 63 301 4.3 7.8 0.00 0.00 0.00 66 1016.2
20260505195619 63 290 5.2 7.8 0.00 0.00 0.00 67 1016.0
20260505195117 63 330 4.3 4.3 0.00 0.00 0.00 66 1016.2
20260505194614 63 301 4.3 9.6 0.00 0.00 0.00 66 1016.2
20260505194109 62 0 2.6 3.5 0.00 0.00 0.00 66 1016.2
20260505193607 63 304 7.8 8.7 0.00 0.00 0.00 65 1016.4
20260505193103 62 295 3.5 5.2 0.00 0.00 0.00 65 1016.3
20260505192603 62 359 4.3 5.2 0.00 0.00 0.00 66 1016.3
20260505192059 62 336 3.5 4.3 0.00 0.00 0.00 66 1016.3
20260505191557 62 311 3.5 4.3 0.00 0.00 0.00 68 1016.2
20260505191055 61 304 5.2 7.8 0.00 0.00 0.00 66 1016.3
20260505190550 62 335 3.5 8.7 0.00 0.00 0.00 64 1016.3
20260505190046 61 324 4.3 7.0 0.00 0.00 0.00 67 1016.0
20260505185543 61 300 3.5 5.2 0.00 0.00 0.00 68 1016.3
20260505185039 61 353 1.7 3.5 0.00 0.00 0.00 70 1016.3
20260505184536 60 321 4.3 6.1 0.00 0.00 0.00 67 1016.4
20260505184033 61 304 4.3 9.6 0.00 0.00 0.00 68 1016.2
20260505183529 61 308 4.3 8.7 0.00 0.00 0.00 67 1016.2
20260505183027 61 326 7.8 7.8 0.00 0.00 0.00 68 1016.3
20260505182523 61 281 1.7 6.1 0.00 0.00 0.00 68 1016.0
20260505182020 61 319 4.3 4.3 0.00 0.00 0.00 69 1016.2
20260505181516 60 348 3.5 7.0 0.00 0.00 0.00 71 1016.2
20260505181014 59 303 7.0 9.6 0.00 0.00 0.00 71 1016.1
20260505180509 60 8 6.1 7.0 0.00 0.00 0.00 71 1016.0
20260505180008 60 321 2.6 5.2 0.00 0.00 0.00 73 1016.1
20260505175502 60 312 5.2 7.8 0.00 0.00 0.00 73 1016.1
20260505175000 60 335 5.2 6.1 0.00 0.00 0.00 74 1015.8
20260505174457 59 311 4.3 5.2 0.00 0.00 0.00 76 1016.0
20260505173953 58 339 5.2 6.1 0.00 0.00 0.00 75 1015.9
20260505173449 58 304 3.5 5.2 0.00 0.00 0.00 77 1016.1
20260505172946 58 294 3.5 4.3 0.00 0.00 0.00 77 1015.8
20260505172445 58 303 2.6 2.6 0.00 0.00 0.00 79 1015.9
20260505171944 58 337 2.6 3.5 0.00 0.00 0.00 79 1015.9
20260505171441 57 338 3.5 3.5 0.00 0.00 0.00 80 1016.0
20260505170937 57 338 1.7 3.5 0.00 0.00 0.00 81 1015.8
20260505170434 57 347 2.6 3.5 0.00 0.00 0.00 81 1015.9
20260505165930 57 351 1.7 2.6 0.00 0.00 0.00 82 1015.9
20260505165426 57 345 1.7 2.6 0.00 0.00 0.00 82 1015.6
20260505164921 57 354 2.6 4.3 0.00 0.00 0.00 81 1015.9
20260505164418 57 321 3.5 4.3 0.00 0.00 0.00 80 1015.9
20260505163916 57 335 4.3 4.3 0.00 0.00 0.00 81 1015.9
20260505163415 57 334 1.7 4.3 0.00 0.00 0.00 81 1016.1
20260505162914 57 350 4.3 7.0 0.00 0.00 0.00 78 1016.0
20260505162409 58 353 3.5 6.1 0.00 0.00 0.00 78 1015.8
20260505161906 58 321 4.3 6.1 0.00 0.00 0.00 77 1015.7
20260505161403 58 311 4.3 7.0 0.00 0.00 0.00 76 1015.9
20260505160900 58 358 4.3 7.8 0.00 0.00 0.00 75 1015.6
20260505160358 59 341 4.3 5.2 0.00 0.00 0.00 76 1016.0
20260505153337 57 326 3.5 4.3 0.00 0.00 0.00 80 1015.6
20260505152835 57 359 2.6 3.5 0.00 0.00 0.00 81 1015.4
20260505152332 57 4 1.7 2.6 0.00 0.00 0.00 81 1015.6
20260505151831 57 295 2.6 3.5 0.00 0.00 0.00 82 1015.3
20260505151328 57 298 1.7 3.5 0.00 0.00 0.00 82 1015.3
20260505150825 56 334 1.7 2.6 0.00 0.00 0.00 84 1015.3
20260505150322 56 322 3.5 3.5 0.00 0.00 0.00 84 1015.3
20260505140246 53 312 1.7 2.6 0.00 0.00 0.00 92 1015.0
20260505130210 53 301 1.7 3.5 0.00 0.00 0.00 92 1014.7
20260505124700 53 309 3.5 3.5 0.00 0.00 0.00 91 1014.8
20260505124157 53 291 3.5 5.2 0.00 0.00 0.00 91 1014.7
20260505123653 53 332 2.6 4.3 0.00 0.00 0.00 91 1014.7
20260505123150 53 300 2.6 4.3 0.00 0.00 0.00 91 1014.5
20260505122646 53 335 3.5 3.5 0.00 0.00 0.00 92 1014.8
20260505122144 53 303 2.6 3.5 0.00 0.00 0.00 92 1014.8
20260505121640 53 297 1.7 2.6 0.00 0.00 0.00 93 1014.8
20260505121137 53 340 1.7 3.5 0.00 0.00 0.00 92 1014.7
20260505120633 53 343 1.7 1.7 0.00 0.00 0.00 92 1014.7
20260505120129 53 333 0.9 1.7 0.00 0.00 0.00 92 1014.6
20260505115623 53 348 1.7 1.7 0.00 0.00 0.00 91 1014.8
20260505115121 53 344 1.7 2.6 0.00 0.00 0.00 91 1014.8
20260505114618 53 335 2.6 3.5 0.00 0.00 0.00 91 1014.8
20260505114114 53 327 3.5 3.5 0.00 0.00 0.00 91 1014.7
20260505113611 53 325 1.7 2.6 0.00 0.00 0.00 91 1015.0
20260505113108 53 341 3.5 3.5 0.00 0.00 0.00 91 1015.0
20260505112604 53 346 1.7 4.3 0.00 0.00 0.00 90 1014.9
20260505112102 53 341 3.5 4.3 0.00 0.00 0.00 90 1014.9
20260505111556 53 346 3.5 3.5 0.00 0.00 0.00 90 1015.1
20260505111052 53 348 1.7 4.3 0.00 0.00 0.00 90 1015.0
20260505110549 53 6 0.9 3.5 0.00 0.00 0.00 90 1014.7